User: anonymous   Login
Location: Turtle Rock Observatory
(36.6913°N, 81.9708°W)
Time: 23:36:35
(UTC-04:00)
Language:

Lacrosse 5 rocket - Orbit

View from above orbital plane
View from above orbital plane
View from above satellite
View from above satellite

Ground track
Ground track

The orbit data is extracted from the following two-line orbital elements,

1 28647U 05016B   16211.95452263 0.00001000  00000-0  60109-4 0    00
2 28647  57.0030 243.5558 0120921 102.9186 257.0813 15.04425163    05
Epoch (UTC): 29 July 2016 22:54:30
Eccentricity: 0.0120921
inclination: 57.0030°
perigee height: 469 km
apogee height: 637 km
right ascension of ascending node: 243.5558°
argument of perigee: 102.9186°
revolutions per day: 15.04425163
mean anomaly at epoch: 257.0813°
orbit number at epoch: 0

The dashed part of the orbit path shows where the satellite is in the earth's shadow,  

DLR